Weather History for KROG - November, 2011

Change the Weather History Date:

Saturday, November 12, 2011

  Actual Average Record
Temperature  
Mean Temperature 57 °F -  
Max Temperature 63 °F 56 °F 75 °F (1999)
Min Temperature 51 °F 39 °F 21 °F (2014)
Degree Days  
Heating Degree Days 8    
Growing Degree Days 7 (Base 50)    
Moisture  
Dew Point 38 °F    
Average Humidity 51    
Maximum Humidity 75    
Minimum Humidity 34    
Precipitation  
Precipitation 0.00 in - - ()
Sea Level Pressure  
Sea Level Pressure 29.80 in    
Wind  
Wind Speed 18 mph (South)    
Max Wind Speed 31 mph    
Max Gust Speed 39 mph    
Visibility 10 miles    
Events      
Averages and records for this station are not official NWS values.
T = Trace of Precipitation, MM = Missing Value Source: NWS Daily Summary

Daily Weather History Graph

Daily Weather History Graph

Search for Another Location

Airport or City:

Trip Planner

Search our weather history database for the weather conditions in past years. The results will help you decide how hot, cold, wet, or windy it might be!

Date:

Astronomy

Nov. 12, 2011 Rise Set
Actual Time 6:50 AM CST 5:10 PM CST
Civil Twilight 6:23 AM CST 5:37 PM CST
Nautical Twilight 5:52 AM CST 6:08 PM CST
Astronomical Twilight 5:21 AM CST 6:38 PM CST
Moon 6:30 PM CST (11/12) 8:30 AM CST (11/12)
Length of Visible Light 11h 14m
Length of Day
10h 19m
Full, 97% of the Moon is Illuminated
Nov 12
Full
Nov 18
Last Quarter
Nov 25
New
Dec 2
First Quarter
Dec 10
Full

Hourly Weather History & Observations

Time (CST) Temp. Dew Point Humidity Pressure Visibility Wind Dir Wind Speed Gust Speed Precip Events Conditions
12:57 AM 51.1 °F 27.0 °F 39% 29.92 in 10.0 mi SSW 13.8 mph - N/A   Clear
1:57 AM 51.1 °F 26.1 °F 38% 29.91 in 10.0 mi SSW 15.0 mph - N/A   Clear
2:57 AM 51.1 °F 25.0 °F 36% 29.89 in 10.0 mi South 17.3 mph - N/A   Clear
3:57 AM 52.0 °F 25.0 °F 35% 29.88 in 10.0 mi South 18.4 mph 23.0 mph N/A   Clear
4:57 AM 53.1 °F 25.0 °F 34% 29.87 in 10.0 mi SSW 17.3 mph 26.5 mph N/A   Clear
5:57 AM 53.1 °F 25.0 °F 34% 29.86 in 10.0 mi South 18.4 mph 26.5 mph N/A   Clear
6:57 AM 53.1 °F 26.1 °F 35% 29.86 in 10.0 mi South 19.6 mph - N/A   Clear
7:57 AM 53.1 °F 28.0 °F 38% 29.86 in 10.0 mi South 18.4 mph 26.5 mph N/A   Clear
8:57 AM 53.1 °F 30.0 °F 41% 29.86 in 10.0 mi South 20.7 mph - N/A   Clear
9:57 AM 55.0 °F 33.1 °F 43% 29.87 in 10.0 mi South 19.6 mph 29.9 mph N/A   Clear
10:57 AM 57.9 °F 36.0 °F 44% 29.86 in 10.0 mi SSW 18.4 mph 32.2 mph N/A   Clear
11:57 AM 57.0 °F 37.9 °F 49% 29.81 in 10.0 mi South 21.9 mph 28.8 mph N/A   Clear
12:57 PM 57.9 °F 41.0 °F 53% 29.76 in 10.0 mi South 23.0 mph 31.1 mph N/A   Clear
1:57 PM 61.0 °F 43.0 °F 52% 29.72 in 10.0 mi South 31.1 mph 38.0 mph N/A   Clear
2:57 PM 62.1 °F 46.0 °F 56% 29.71 in 10.0 mi South 26.5 mph 39.1 mph N/A   Clear
3:57 PM 63.0 °F 46.9 °F 56% 29.72 in 10.0 mi South 23.0 mph 34.5 mph N/A   Clear
4:57 PM 60.1 °F 48.0 °F 64% 29.73 in 10.0 mi South 24.2 mph 33.4 mph N/A   Partly Cloudy
5:57 PM 60.1 °F 48.0 °F 64% 29.74 in 10.0 mi South 17.3 mph - N/A   Clear
6:57 PM 59.0 °F 48.9 °F 69% 29.76 in 10.0 mi South 18.4 mph 26.5 mph N/A   Clear
7:57 PM 59.0 °F 50.0 °F 72% 29.76 in 10.0 mi South 18.4 mph 25.3 mph N/A   Clear
9:57 PM 60.1 °F 52.0 °F 75% 29.73 in 10.0 mi South 18.4 mph 26.5 mph N/A   Clear
10:57 PM 61.0 °F 52.0 °F 72% 29.71 in 10.0 mi South 17.3 mph 27.6 mph N/A   Clear
11:57 PM 62.1 °F 53.1 °F 72% 29.68 in 10.0 mi South 24.2 mph 31.1 mph N/A   Clear